WZZ8CR ENZV-EPGD

Flight info

Callsign WZZ8CR
Flight time N/A
Altitude 39000
Route PEVEB DCT TOPLA DCT PENOR N133 DOMAG T240 OGDAV
Aircraft A320/M-VGDW/C

Departure

Time 2026-04-26 16:32
Airport Stavanger Airport, Sola (ENZV)

Arrival

Time N/A
Airport Gdańsk Lech Wałęsa Airport (EPGD)
Time Latitude Longitude Altitude Speed Heading
2026-04-26 16:14 58.88151 5.63084 25 ft 0 kts 315°
2026-04-26 16:23 58.88139 5.63107 27 ft 4 kts 315°
2026-04-26 16:23 58.88121 5.63141 28 ft 2 kts 315°
2026-04-26 16:23 58.88121 5.63142 29 ft 1 kts 315°
2026-04-26 16:26 58.88121 5.63141 28 ft 2 kts 315°
2026-04-26 16:27 58.88120 5.63125 29 ft 1 kts 240°
2026-04-26 16:27 58.88116 5.63126 28 ft 1 kts 188°
2026-04-26 16:27 58.88109 5.63136 30 ft 3 kts 150°
2026-04-26 16:27 58.88087 5.63161 27 ft 6 kts 150°
2026-04-26 16:28 58.88035 5.63225 28 ft 12 kts 141°
2026-04-26 16:28 58.87983 5.63357 30 ft 12 kts 136°
2026-04-26 16:28 58.87907 5.63339 31 ft 13 kts 202°
2026-04-26 16:28 58.87807 5.63285 31 ft 17 kts 180°
2026-04-26 16:29 58.87678 5.63293 31 ft 20 kts 179°
2026-04-26 16:29 58.87522 5.63291 30 ft 24 kts 181°
2026-04-26 16:29 58.87345 5.63300 30 ft 27 kts 179°
2026-04-26 16:29 58.87164 5.63308 31 ft 25 kts 179°
2026-04-26 16:30 58.87033 5.63335 32 ft 18 kts 156°
2026-04-26 16:30 58.86954 5.63488 33 ft 15 kts 103°
2026-04-26 16:30 58.86951 5.63692 36 ft 16 kts 90°
2026-04-26 16:30 58.87004 5.63801 36 ft 11 kts 358°
2026-04-26 16:31 58.87024 5.63797 35 ft 1 kts 355°
2026-04-26 16:31 58.87053 5.63796 35 ft 13 kts 359°
2026-04-26 16:31 58.87479 5.63787 34 ft 106 kts 359°
2026-04-26 16:31 58.88454 5.63814 155 ft 164 kts 358°
2026-04-26 16:32 58.89608 5.63899 1172 ft 168 kts 358°
2026-04-26 16:32 58.90390 5.63907 1891 ft 170 kts 358°
2026-04-26 16:32 58.92044 5.63737 2893 ft 190 kts 355°
2026-04-26 16:32 58.93429 5.63530 3537 ft 210 kts 356°
2026-04-26 16:33 58.94962 5.63384 4209 ft 231 kts 358°
2026-04-26 16:33 58.96575 5.63914 5135 ft 243 kts 23°
2026-04-26 16:33 58.97903 5.66013 6190 ft 255 kts 50°
2026-04-26 16:33 58.98586 5.69255 7202 ft 271 kts 77°
2026-04-26 16:34 58.98438 5.72983 8112 ft 290 kts 104°
2026-04-26 16:34 58.97412 5.76446 9019 ft 306 kts 130°
2026-04-26 16:34 58.95764 5.79200 9904 ft 318 kts 135°
2026-04-26 16:34 58.94230 5.82341 10689 ft 328 kts 128°
2026-04-26 16:35 58.92729 5.85868 11081 ft 352 kts 126°
2026-04-26 16:35 58.91135 5.89670 11491 ft 373 kts 127°
2026-04-26 16:35 58.89455 5.93576 12244 ft 382 kts 127°
2026-04-26 16:35 58.87718 5.97518 13096 ft 389 kts 128°
2026-04-26 16:36 58.85933 6.01514 13888 ft 396 kts 128°
2026-04-26 16:36 58.84112 6.05566 14637 ft 403 kts 128°
2026-04-26 16:36 58.82304 6.09577 15411 ft 407 kts 128°
2026-04-26 16:36 58.80432 6.13722 16144 ft 413 kts 128°
2026-04-26 16:37 58.78532 6.17923 16872 ft 418 kts 128°
2026-04-26 16:37 58.76612 6.22163 17617 ft 422 kts 128°
2026-04-26 16:37 58.74665 6.26454 18329 ft 428 kts 128°
2026-04-26 16:37 58.72697 6.30782 18922 ft 434 kts 128°
2026-04-26 16:38 58.70695 6.35178 19573 ft 438 kts 128°
2026-04-26 16:38 58.68676 6.39601 20252 ft 442 kts 128°
2026-04-26 16:38 58.66644 6.44047 20907 ft 447 kts 128°
2026-04-26 16:38 58.64574 6.48563 21468 ft 453 kts 128°